contact:dominique.lefevre@mio.osupytheas.fr, maurice.libes@osupytheas.fr, didier.mallarino@osupytheas.fr
Project:EMSO http://www.emso-fr.org/EMSO-France
Depth: 2436.0 m
Title:EMSO Ligure Ouest : Data MII capteur CSTAR
DateTime,Latitude,Longitude,Instrument_Serial,Reference_Counts,Signal_Counts,Corrected_Signal_raw_counts,Calculated_Beam_c_inverse_meters,Internal_thermistor_counts
DateTime,Latitude,Longitude,Instrument_Serial,Reference_Counts,Signal_Counts,Corrected_Signal_raw_counts,Calculated_Beam_c_inverse_meters,Internal_thermistor_counts
2022-06-25T00:01:44,42.805,6.029,CST-1368DR,4688,5145,11694,01.157,551
2022-06-25T00:04:46,42.805,6.029,CST-1368DR,4688,5151,11709,01.152,551
2022-06-25T00:07:48,42.805,6.029,CST-1368DR,4688,5137,11676,01.163,551
2022-06-25T00:10:49,42.805,6.029,CST-1368DR,4688,5143,11690,01.158,551
2022-06-25T00:13:51,42.805,6.029,CST-1368DR,4688,5131,11664,01.167,551
2022-06-25T00:16:52,42.805,6.029,CST-1368DR,4687,5121,11642,01.175,551
2022-06-25T00:19:54,42.805,6.029,CST-1368DR,4687,5120,11639,01.176,551
2022-06-25T00:22:56,42.805,6.029,CST-1368DR,4687,5114,11627,01.180,551
2022-06-25T00:25:57,42.805,6.029,CST-1368DR,4687,5116,11630,01.179,551
2022-06-25T00:28:59,42.805,6.029,CST-1368DR,4687,5121,11643,01.174,551
2022-06-25T00:32:00,42.805,6.029,CST-1368DR,4687,5110,11617,01.183,551
2022-06-25T00:35:02,42.805,6.029,CST-1368DR,4688,5136,11673,01.164,551
2022-06-25T00:38:03,42.805,6.029,CST-1368DR,4687,5118,11636,01.177,551
2022-06-25T00:41:05,42.805,6.029,CST-1368DR,4687,5117,11634,01.177,551
2022-06-25T00:44:07,42.805,6.029,CST-1368DR,4687,5118,11636,01.177,551
2022-06-25T00:47:08,42.805,6.029,CST-1368DR,4687,5115,11630,01.179,551
2022-06-25T00:50:10,42.805,6.029,CST-1368DR,4687,5117,11633,01.178,551
2022-06-25T00:53:11,42.805,6.029,CST-1368DR,4687,5110,11618,01.183,551
2022-06-25T00:56:13,42.805,6.029,CST-1368DR,4687,5109,11616,01.184,551
2022-06-25T00:59:15,42.805,6.029,CST-1368DR,4687,5114,11627,01.180,551
2022-06-25T01:02:16,42.805,6.029,CST-1368DR,4687,5109,11614,01.184,551
2022-06-25T01:05:18,42.805,6.029,CST-1368DR,4687,5114,11627,01.180,551
2022-06-25T01:08:19,42.805,6.029,CST-1368DR,4687,5111,11619,01.183,551
2022-06-25T01:11:21,42.805,6.029,CST-1368DR,4687,5112,11621,01.182,551
2022-06-25T01:14:22,42.805,6.029,CST-1368DR,4687,5111,11619,01.183,551
2022-06-25T01:17:24,42.805,6.029,CST-1368DR,4687,5115,11628,01.180,551
2022-06-25T01:20:26,42.805,6.029,CST-1368DR,4687,5121,11642,01.175,551
2022-06-25T01:23:27,42.805,6.029,CST-1368DR,4687,5112,11623,01.181,551
2022-06-25T01:26:29,42.805,6.029,CST-1368DR,4687,5110,11617,01.183,551
2022-06-25T01:29:30,42.805,6.029,CST-1368DR,4687,5113,11624,01.181,551
2022-06-25T01:32:32,42.805,6.029,CST-1368DR,4687,5112,11622,01.182,551
2022-06-25T01:35:33,42.805,6.029,CST-1368DR,4687,5108,11612,01.185,551
2022-06-25T01:38:35,42.805,6.029,CST-1368DR,4687,5109,11614,01.184,551
2022-06-25T01:41:37,42.805,6.029,CST-1368DR,4687,5108,11612,01.185,551
2022-06-25T01:44:38,42.805,6.029,CST-1368DR,4687,5106,11609,01.186,551
2022-06-25T01:47:40,42.805,6.029,CST-1368DR,4687,5112,11621,01.182,551
2022-06-25T01:50:41,42.805,6.029,CST-1368DR,4687,5107,11611,01.185,551
2022-06-25T01:53:43,42.805,6.029,CST-1368DR,4687,5111,11619,01.183,551
2022-06-25T01:56:45,42.805,6.029,CST-1368DR,4687,5107,11611,01.185,551
2022-06-25T01:59:46,42.805,6.029,CST-1368DR,4687,5107,11610,01.186,551
2022-06-25T02:02:48,42.805,6.029,CST-1368DR,4687,5108,11612,01.185,551
2022-06-25T02:05:49,42.805,6.029,CST-1368DR,4687,5105,11605,01.187,551
2022-06-25T02:08:51,42.805,6.029,CST-1368DR,4687,5101,11598,01.190,551
2022-06-25T02:11:52,42.805,6.029,CST-1368DR,4687,5105,11606,01.187,551
2022-06-25T02:14:54,42.805,6.029,CST-1368DR,4687,5106,11609,01.186,551
2022-06-25T02:17:56,42.805,6.029,CST-1368DR,4687,5110,11618,01.183,551
2022-06-25T02:20:57,42.805,6.029,CST-1368DR,4687,5106,11608,01.186,551
2022-06-25T02:23:59,42.805,6.029,CST-1368DR,4687,5107,11611,01.185,551
2022-06-25T02:27:00,42.805,6.029,CST-1368DR,4687,5105,11606,01.187,551
2022-06-25T02:30:02,42.805,6.029,CST-1368DR,4687,5104,11604,01.188,551
2022-06-25T02:33:04,42.805,6.029,CST-1368DR,4687,5104,11605,01.187,551
2022-06-25T02:36:05,42.805,6.029,CST-1368DR,4687,5105,11605,01.187,551
2022-06-25T02:39:07,42.805,6.029,CST-1368DR,4687,5110,11617,01.183,551
2022-06-25T02:42:08,42.805,6.029,CST-1368DR,4687,5111,11620,01.182,551
2022-06-25T02:45:10,42.805,6.029,CST-1368DR,4687,5103,11601,01.189,551
2022-06-25T02:48:11,42.805,6.029,CST-1368DR,4687,5104,11604,01.188,551
2022-06-25T02:51:13,42.805,6.029,CST-1368DR,4687,5104,11604,01.188,551
2022-06-25T02:54:15,42.805,6.029,CST-1368DR,4687,5116,11631,01.178,551
2022-06-25T02:57:16,42.805,6.029,CST-1368DR,4687,5111,11619,01.183,551
2022-06-25T03:00:18,42.805,6.029,CST-1368DR,4687,5106,11608,01.186,551
2022-06-25T03:03:19,42.805,6.029,CST-1368DR,4687,5102,11598,01.190,551
2022-06-25T03:06:21,42.805,6.029,CST-1368DR,4687,5103,11601,01.189,551
2022-06-25T03:09:22,42.805,6.029,CST-1368DR,4687,5104,11604,01.188,551
2022-06-25T03:12:24,42.805,6.029,CST-1368DR,4687,5097,11587,01.194,551
2022-06-25T03:15:26,42.805,6.029,CST-1368DR,4687,5108,11612,01.185,551
2022-06-25T03:18:27,42.805,6.029,CST-1368DR,4687,5104,11603,01.188,551
2022-06-25T03:21:29,42.805,6.029,CST-1368DR,4687,5098,11590,01.193,551
2022-06-25T03:24:30,42.805,6.029,CST-1368DR,4687,5105,11606,01.187,551
2022-06-25T03:27:32,42.805,6.029,CST-1368DR,4687,5101,11597,01.190,551
2022-06-25T03:30:34,42.805,6.029,CST-1368DR,4687,5108,11612,01.185,551
2022-06-25T03:33:35,42.805,6.029,CST-1368DR,4687,5106,11608,01.186,551
2022-06-25T03:36:37,42.805,6.029,CST-1368DR,4687,5107,11611,01.185,551
2022-06-25T03:39:38,42.805,6.029,CST-1368DR,4687,5106,11609,01.186,551
2022-06-25T03:42:40,42.805,6.029,CST-1368DR,4687,5107,11611,01.185,551
2022-06-25T03:45:41,42.805,6.029,CST-1368DR,4687,5100,11594,01.191,551
2022-06-25T03:48:43,42.805,6.029,CST-1368DR,4687,5113,11625,01.181,551
2022-06-25T03:51:45,42.805,6.029,CST-1368DR,4687,5110,11618,01.183,551
2022-06-25T03:54:46,42.805,6.029,CST-1368DR,4687,5101,11597,01.190,551
2022-06-25T03:57:48,42.805,6.029,CST-1368DR,4687,5109,11615,01.184,551
2022-06-25T04:00:49,42.805,6.029,CST-1368DR,4687,5112,11622,01.182,551
2022-06-25T04:03:51,42.805,6.029,CST-1368DR,4687,5101,11598,01.190,551
2022-06-25T04:06:53,42.805,6.029,CST-1368DR,4687,5102,11598,01.190,551
2022-06-25T04:09:54,42.805,6.029,CST-1368DR,4687,5107,11610,01.186,551
2022-06-25T04:12:56,42.805,6.029,CST-1368DR,4687,5110,11618,01.183,551
2022-06-25T04:15:57,42.805,6.029,CST-1368DR,4687,5110,11617,01.183,551
2022-06-25T04:18:59,42.805,6.029,CST-1368DR,4687,5104,11605,01.187,551
2022-06-25T04:22:00,42.805,6.029,CST-1368DR,4687,5098,11590,01.193,551
2022-06-25T04:25:02,42.805,6.029,CST-1368DR,4687,5100,11596,01.191,551
2022-06-25T04:28:04,42.805,6.029,CST-1368DR,4687,5101,11597,01.190,551
2022-06-25T04:31:05,42.805,6.029,CST-1368DR,4687,5101,11597,01.190,551
2022-06-25T04:34:07,42.805,6.029,CST-1368DR,4687,5108,11614,01.184,551
2022-06-25T04:37:08,42.805,6.029,CST-1368DR,4687,5103,11602,01.188,551
2022-06-25T04:40:10,42.805,6.029,CST-1368DR,4687,5095,11584,01.195,551
2022-06-25T04:43:11,42.805,6.029,CST-1368DR,4687,5085,11560,01.203,551
2022-06-25T04:46:13,42.805,6.029,CST-1368DR,4687,5091,11575,01.198,551
2022-06-25T04:49:15,42.805,6.029,CST-1368DR,4687,5101,11597,01.190,551
2022-06-25T04:52:16,42.805,6.029,CST-1368DR,4687,5088,11568,01.200,551
2022-06-25T04:55:18,42.805,6.029,CST-1368DR,4687,5094,11582,01.195,551
2022-06-25T04:58:19,42.805,6.029,CST-1368DR,4687,5103,11602,01.188,551
2022-06-25T05:01:21,42.805,6.029,CST-1368DR,4687,5096,11586,01.194,551
2022-06-25T05:04:23,42.805,6.029,CST-1368DR,4687,5092,11577,01.197,551
2022-06-25T05:07:24,42.805,6.029,CST-1368DR,4687,5100,11594,01.191,551
2022-06-25T05:10:26,42.805,6.029,CST-1368DR,4687,5099,11592,01.192,551
2022-06-25T05:13:27,42.805,6.029,CST-1368DR,4687,5109,11614,01.184,551
2022-06-25T05:16:29,42.805,6.029,CST-1368DR,4687,5100,11594,01.191,551
2022-06-25T05:19:30,42.805,6.029,CST-1368DR,4687,5099,11593,01.192,551
2022-06-25T05:22:32,42.805,6.029,CST-1368DR,4687,5099,11592,01.192,551
2022-06-25T05:25:34,42.805,6.029,CST-1368DR,4687,5101,11596,01.191,551
2022-06-25T05:28:35,42.805,6.029,CST-1368DR,4687,5100,11596,01.191,551
2022-06-25T05:31:37,42.805,6.029,CST-1368DR,4687,5095,11584,01.195,551
2022-06-25T05:34:38,42.805,6.029,CST-1368DR,4687,5091,11575,01.198,551
2022-06-25T05:37:40,42.805,6.029,CST-1368DR,4687,5101,11597,01.190,551
2022-06-25T05:40:41,42.805,6.029,CST-1368DR,4686,4875,11086,01.370,551
2022-06-25T05:43:43,42.805,6.029,CST-1368DR,4686,5018,11411,01.255,551
2022-06-25T05:46:45,42.805,6.029,CST-1368DR,4686,5012,11396,01.260,551
2022-06-25T05:49:46,42.805,6.029,CST-1368DR,4687,5041,11461,01.237,551
2022-06-25T05:52:48,42.805,6.029,CST-1368DR,4686,5013,11400,01.259,551
2022-06-25T05:55:49,42.805,6.029,CST-1368DR,4687,5100,11595,01.191,551
2022-06-25T05:58:51,42.805,6.029,CST-1368DR,4687,5098,11590,01.193,551
2022-06-25T06:01:53,42.805,6.029,CST-1368DR,4687,5108,11613,01.185,551
2022-06-25T06:04:54,42.805,6.029,CST-1368DR,4687,5105,11606,01.187,551
2022-06-25T06:07:56,42.805,6.029,CST-1368DR,4687,5100,11594,01.191,551
2022-06-25T06:10:57,42.805,6.029,CST-1368DR,4687,5113,11625,01.181,551
2022-06-25T06:13:59,42.805,6.029,CST-1368DR,4687,5104,11604,01.188,551
2022-06-25T06:17:00,42.805,6.029,CST-1368DR,4687,5110,11617,01.183,551
2022-06-25T06:20:02,42.805,6.029,CST-1368DR,4687,5099,11592,01.192,551
2022-06-25T06:23:04,42.805,6.029,CST-1368DR,4687,5107,11610,01.186,551
2022-06-25T06:26:05,42.805,6.029,CST-1368DR,4687,5108,11613,01.185,551
2022-06-25T06:29:07,42.805,6.029,CST-1368DR,4687,5110,11617,01.183,551
2022-06-25T06:32:08,42.805,6.029,CST-1368DR,4687,5114,11627,01.180,551
2022-06-25T06:35:10,42.805,6.029,CST-1368DR,4687,5113,11624,01.181,551
2022-06-25T06:38:12,42.805,6.029,CST-1368DR,4687,5115,11629,01.179,551
2022-06-25T06:41:13,42.805,6.029,CST-1368DR,4687,5113,11624,01.181,551
2022-06-25T06:44:15,42.805,6.029,CST-1368DR,4687,5119,11638,01.176,551
2022-06-25T06:47:16,42.805,6.029,CST-1368DR,4687,5116,11630,01.179,551
2022-06-25T06:50:18,42.805,6.029,CST-1368DR,4687,5116,11631,01.178,551
2022-06-25T06:53:19,42.805,6.029,CST-1368DR,4687,5120,11640,01.175,551
2022-06-25T06:56:21,42.805,6.029,CST-1368DR,4687,5117,11634,01.177,551
2022-06-25T06:59:23,42.805,6.029,CST-1368DR,4687,5116,11630,01.179,551
2022-06-25T07:02:24,42.805,6.029,CST-1368DR,4687,5107,11611,01.185,551
2022-06-25T07:05:26,42.805,6.029,CST-1368DR,4687,5109,11616,01.184,551
2022-06-25T07:08:27,42.805,6.029,CST-1368DR,4687,5111,11619,01.183,551
2022-06-25T07:11:29,42.805,6.029,CST-1368DR,4687,5104,11604,01.188,551
2022-06-25T07:14:30,42.805,6.029,CST-1368DR,4687,5118,11636,01.177,551
2022-06-25T07:17:32,42.805,6.029,CST-1368DR,4687,5121,11642,01.175,551
2022-06-25T07:20:34,42.805,6.029,CST-1368DR,4687,5120,11641,01.175,551
2022-06-25T07:23:35,42.805,6.029,CST-1368DR,4687,5117,11633,01.178,551
2022-06-25T07:26:37,42.805,6.029,CST-1368DR,4687,5108,11614,01.184,551
2022-06-25T07:29:38,42.805,6.029,CST-1368DR,4687,5126,11655,01.170,551
2022-06-25T07:32:40,42.805,6.029,CST-1368DR,4687,5133,11671,01.165,551
2022-06-25T07:35:42,42.805,6.029,CST-1368DR,4687,5123,11647,01.173,551
2022-06-25T07:38:43,42.805,6.029,CST-1368DR,4687,5120,11641,01.175,551
2022-06-25T07:41:45,42.805,6.029,CST-1368DR,4687,5118,11636,01.177,551
2022-06-25T07:44:46,42.805,6.029,CST-1368DR,4687,5119,11638,01.176,551
2022-06-25T07:47:48,42.805,6.029,CST-1368DR,4687,5129,11661,01.168,551
2022-06-25T07:50:49,42.805,6.029,CST-1368DR,4687,5096,11586,01.194,551
2022-06-25T07:53:51,42.805,6.029,CST-1368DR,4687,5060,11505,01.222,551
2022-06-25T07:56:53,42.805,6.029,CST-1368DR,4687,5086,11564,01.202,551
2022-06-25T07:59:54,42.805,6.029,CST-1368DR,4687,5120,11640,01.175,551
2022-06-25T08:02:56,42.805,6.029,CST-1368DR,4687,5115,11629,01.179,551
2022-06-25T08:05:57,42.805,6.029,CST-1368DR,4687,5117,11633,01.178,551
2022-06-25T08:08:59,42.805,6.029,CST-1368DR,4687,5118,11636,01.177,551
2022-06-25T08:12:00,42.805,6.029,CST-1368DR,4687,5108,11613,01.185,551
2022-06-25T08:15:02,42.805,6.029,CST-1368DR,4687,5116,11631,01.178,551
2022-06-25T08:18:04,42.805,6.029,CST-1368DR,4687,5106,11608,01.186,551
2022-06-25T08:21:05,42.805,6.029,CST-1368DR,4687,5118,11636,01.177,551
2022-06-25T08:24:07,42.805,6.029,CST-1368DR,4687,5118,11635,01.177,551
2022-06-25T08:27:08,42.805,6.029,CST-1368DR,4687,5121,11642,01.175,551
2022-06-25T08:30:10,42.805,6.029,CST-1368DR,4687,5071,11528,01.214,551
2022-06-25T08:33:12,42.805,6.029,CST-1368DR,4687,5078,11545,01.208,551
2022-06-25T08:36:13,42.805,6.029,CST-1368DR,4687,5072,11530,01.213,551
2022-06-25T08:39:15,42.805,6.029,CST-1368DR,4687,5104,11604,01.188,551
2022-06-25T08:42:16,42.805,6.029,CST-1368DR,4687,5102,11598,01.190,551
2022-06-25T08:45:18,42.805,6.029,CST-1368DR,4687,5075,11538,01.211,551
2022-06-25T08:48:19,42.805,6.029,CST-1368DR,4687,5093,11578,01.197,551
2022-06-25T08:51:21,42.805,6.029,CST-1368DR,4687,5080,11550,01.206,551
2022-06-25T08:54:23,42.805,6.029,CST-1368DR,4686,5058,11502,01.223,551
2022-06-25T08:57:24,42.805,6.029,CST-1368DR,4687,5066,11517,01.218,551
2022-06-25T09:00:26,42.805,6.029,CST-1368DR,4687,5068,11521,01.216,551
2022-06-25T09:03:27,42.805,6.029,CST-1368DR,4687,5080,11550,01.206,551
2022-06-25T09:06:29,42.805,6.029,CST-1368DR,4687,5083,11556,01.204,551
2022-06-25T09:09:31,42.805,6.029,CST-1368DR,4686,5063,11513,01.219,551
2022-06-25T09:12:32,42.805,6.029,CST-1368DR,4687,5067,11520,01.217,551
2022-06-25T09:15:34,42.805,6.029,CST-1368DR,4687,5065,11515,01.219,551
2022-06-25T09:18:35,42.805,6.029,CST-1368DR,4687,5066,11518,01.218,551
2022-06-25T09:21:37,42.805,6.029,CST-1368DR,4687,5088,11568,01.200,551
2022-06-25T09:24:38,42.805,6.029,CST-1368DR,4686,5063,11513,01.219,551
2022-06-25T09:27:40,42.805,6.029,CST-1368DR,4686,5064,11515,01.219,551
2022-06-25T09:30:42,42.805,6.029,CST-1368DR,4686,5055,11494,01.226,551
2022-06-25T09:33:43,42.805,6.029,CST-1368DR,4686,5069,11526,01.215,551
2022-06-25T09:36:45,42.805,6.029,CST-1368DR,4686,5062,11511,01.220,551
2022-06-25T09:39:46,42.805,6.029,CST-1368DR,4687,5093,11578,01.197,551
2022-06-25T09:42:48,42.805,6.029,CST-1368DR,4686,5074,11539,01.210,551
2022-06-25T09:45:49,42.805,6.029,CST-1368DR,4687,5081,11552,01.206,551
2022-06-25T09:48:51,42.805,6.029,CST-1368DR,4687,5075,11538,01.211,551
2022-06-25T09:51:53,42.805,6.029,CST-1368DR,4687,5091,11574,01.198,551
2022-06-25T09:54:54,42.805,6.029,CST-1368DR,4687,5078,11546,01.208,551
2022-06-25T09:57:56,42.805,6.029,CST-1368DR,4687,5088,11568,01.200,551
2022-06-25T10:00:57,42.805,6.029,CST-1368DR,4687,5079,11547,01.207,551
2022-06-25T10:03:59,42.805,6.029,CST-1368DR,4686,5071,11532,01.213,551
2022-06-25T10:07:01,42.805,6.029,CST-1368DR,4687,5080,11548,01.207,551
2022-06-25T10:10:02,42.805,6.029,CST-1368DR,4686,5079,11550,01.206,551
2022-06-25T10:13:04,42.805,6.029,CST-1368DR,4686,5067,11522,01.216,551
2022-06-25T10:16:05,42.805,6.029,CST-1368DR,4686,5064,11515,01.219,551
2022-06-25T10:19:07,42.805,6.029,CST-1368DR,4686,5078,11547,01.207,551
2022-06-25T10:22:08,42.805,6.029,CST-1368DR,4687,5079,11547,01.207,551
2022-06-25T10:25:10,42.805,6.029,CST-1368DR,4686,5076,11542,01.209,551
2022-06-25T10:28:12,42.805,6.029,CST-1368DR,4687,5090,11572,01.199,551
2022-06-25T10:31:13,42.805,6.029,CST-1368DR,4686,5081,11553,01.205,551
2022-06-25T10:34:15,42.805,6.029,CST-1368DR,4686,5082,11555,01.205,551
2022-06-25T10:37:16,42.805,6.029,CST-1368DR,4686,5079,11548,01.207,551
2022-06-25T10:40:18,42.805,6.029,CST-1368DR,4687,5095,11584,01.195,551
2022-06-25T10:43:20,42.805,6.029,CST-1368DR,4686,5080,11551,01.206,551
2022-06-25T10:46:21,42.805,6.029,CST-1368DR,4687,5092,11577,01.197,551
2022-06-25T10:49:23,42.805,6.029,CST-1368DR,4686,5087,11568,01.200,551
2022-06-25T10:52:24,42.805,6.029,CST-1368DR,4687,5085,11560,01.203,551
2022-06-25T10:55:26,42.805,6.029,CST-1368DR,4687,5083,11556,01.204,551
2022-06-25T10:58:27,42.805,6.029,CST-1368DR,4687,5091,11574,01.198,551
2022-06-25T11:01:29,42.805,6.029,CST-1368DR,4687,5098,11591,01.192,551
2022-06-25T11:04:31,42.805,6.029,CST-1368DR,4687,5092,11576,01.197,551
2022-06-25T11:07:32,42.805,6.029,CST-1368DR,4686,5073,11536,01.211,551
2022-06-25T11:10:34,42.805,6.029,CST-1368DR,4687,5092,11576,01.197,551
2022-06-25T11:13:35,42.805,6.029,CST-1368DR,4687,5088,11567,01.201,551
2022-06-25T11:16:37,42.805,6.029,CST-1368DR,4687,5090,11572,01.199,551
2022-06-25T11:19:39,42.805,6.029,CST-1368DR,4687,5085,11561,01.203,551
2022-06-25T11:22:40,42.805,6.029,CST-1368DR,4686,5081,11554,01.205,551
2022-06-25T11:25:42,42.805,6.029,CST-1368DR,4687,5103,11601,01.189,551
2022-06-25T11:28:43,42.805,6.029,CST-1368DR,4687,5085,11561,01.203,551
2022-06-25T11:31:45,42.805,6.029,CST-1368DR,4686,5073,11535,01.212,551
2022-06-25T11:34:46,42.805,6.029,CST-1368DR,4687,5095,11583,01.195,551
2022-06-25T11:37:48,42.805,6.029,CST-1368DR,4687,5082,11553,01.205,551
2022-06-25T11:40:50,42.805,6.029,CST-1368DR,4687,5085,11561,01.203,551
2022-06-25T11:43:51,42.805,6.029,CST-1368DR,4687,5087,11566,01.201,551
2022-06-25T11:46:53,42.805,6.029,CST-1368DR,4687,5088,11567,01.201,551
2022-06-25T11:49:54,42.805,6.029,CST-1368DR,4686,5088,11570,01.200,551
2022-06-25T11:52:56,42.805,6.029,CST-1368DR,4687,5095,11583,01.195,551
2022-06-25T11:55:57,42.805,6.029,CST-1368DR,4686,5083,11558,01.204,551
2022-06-25T11:58:59,42.805,6.029,CST-1368DR,4686,5081,11554,01.205,551
2022-06-25T12:02:01,42.805,6.029,CST-1368DR,4687,5087,11566,01.201,551
2022-06-25T12:05:02,42.805,6.029,CST-1368DR,4686,5080,11551,01.206,551
2022-06-25T12:08:04,42.805,6.029,CST-1368DR,4687,5083,11556,01.204,551
2022-06-25T12:11:05,42.805,6.029,CST-1368DR,4687,5082,11553,01.205,551
2022-06-25T12:14:07,42.805,6.029,CST-1368DR,4687,5094,11582,01.195,551
2022-06-25T12:17:09,42.805,6.029,CST-1368DR,4687,5086,11563,01.202,551
2022-06-25T12:20:10,42.805,6.029,CST-1368DR,4686,5082,11556,01.204,551
2022-06-25T12:23:12,42.805,6.029,CST-1368DR,4687,5096,11586,01.194,551
2022-06-25T12:26:13,42.805,6.029,CST-1368DR,4687,5091,11575,01.198,551
2022-06-25T12:29:15,42.805,6.029,CST-1368DR,4686,5085,11563,01.202,551
2022-06-25T12:32:16,42.805,6.029,CST-1368DR,4687,5095,11583,01.195,551
2022-06-25T12:35:18,42.805,6.029,CST-1368DR,4686,5086,11565,01.201,551
2022-06-25T12:38:20,42.805,6.029,CST-1368DR,4687,5092,11577,01.197,551
2022-06-25T12:41:21,42.805,6.029,CST-1368DR,4686,5089,11573,01.198,551
2022-06-25T12:44:23,42.805,6.029,CST-1368DR,4686,5081,11554,01.205,551
2022-06-25T12:47:24,42.805,6.029,CST-1368DR,4686,5081,11554,01.205,551
2022-06-25T12:50:26,42.805,6.029,CST-1368DR,4686,5074,11539,01.210,551
2022-06-25T12:53:28,42.805,6.029,CST-1368DR,4686,5090,11573,01.198,551
2022-06-25T12:56:29,42.805,6.029,CST-1368DR,4686,5092,11578,01.197,551
2022-06-25T12:59:31,42.805,6.029,CST-1368DR,4686,5080,11552,01.206,551
2022-06-25T13:02:32,42.805,6.029,CST-1368DR,4686,5078,11547,01.207,551
2022-06-25T13:05:34,42.805,6.029,CST-1368DR,4686,5084,11560,01.203,551
2022-06-25T13:08:35,42.805,6.029,CST-1368DR,4686,5088,11570,01.200,551
2022-06-25T13:11:37,42.805,6.029,CST-1368DR,4686,5085,11562,01.202,551
2022-06-25T13:14:39,42.805,6.029,CST-1368DR,4686,5088,11570,01.200,551
2022-06-25T13:17:40,42.805,6.029,CST-1368DR,4686,5086,11566,01.201,551
2022-06-25T13:20:42,42.805,6.029,CST-1368DR,4686,5085,11562,01.202,551
2022-06-25T13:23:43,42.805,6.029,CST-1368DR,4686,5084,11560,01.203,551
2022-06-25T13:26:45,42.805,6.029,CST-1368DR,4686,5076,11542,01.209,551
2022-06-25T13:29:46,42.805,6.029,CST-1368DR,4687,5095,11583,01.195,551
2022-06-25T13:32:48,42.805,6.029,CST-1368DR,4686,5091,11576,01.197,551
2022-06-25T13:35:50,42.805,6.029,CST-1368DR,4686,5086,11566,01.201,551
2022-06-25T13:38:51,42.805,6.029,CST-1368DR,4686,5085,11562,01.202,551
2022-06-25T13:41:53,42.805,6.029,CST-1368DR,4686,5087,11567,01.201,551
2022-06-25T13:44:54,42.805,6.029,CST-1368DR,4686,5093,11581,01.196,551
2022-06-25T13:47:56,42.805,6.029,CST-1368DR,4686,5085,11563,01.202,551
2022-06-25T13:50:58,42.805,6.029,CST-1368DR,4686,5085,11562,01.202,551
2022-06-25T13:53:59,42.805,6.029,CST-1368DR,4686,5073,11535,01.212,551
2022-06-25T13:57:01,42.805,6.029,CST-1368DR,4686,5081,11554,01.205,551
2022-06-25T14:00:02,42.805,6.029,CST-1368DR,4686,5079,11550,01.206,551
2022-06-25T14:03:04,42.805,6.029,CST-1368DR,4686,5077,11546,01.208,551
2022-06-25T14:06:05,42.805,6.029,CST-1368DR,4686,5076,11543,01.209,551
2022-06-25T14:09:07,42.805,6.029,CST-1368DR,4686,5073,11536,01.211,551
2022-06-25T14:12:09,42.805,6.029,CST-1368DR,4686,5080,11551,01.206,551
2022-06-25T14:15:10,42.805,6.029,CST-1368DR,4686,5095,11587,01.194,551
2022-06-25T14:18:12,42.805,6.029,CST-1368DR,4686,5082,11557,01.204,551
2022-06-25T14:21:13,42.805,6.029,CST-1368DR,4686,5078,11547,01.207,551
2022-06-25T14:24:15,42.805,6.029,CST-1368DR,4686,5087,11568,01.200,551
2022-06-25T14:27:17,42.805,6.029,CST-1368DR,4686,5083,11558,01.204,551
2022-06-25T14:30:18,42.805,6.029,CST-1368DR,4686,5077,11545,01.208,551
2022-06-25T14:33:20,42.805,6.029,CST-1368DR,4686,5077,11545,01.208,551
2022-06-25T14:36:21,42.805,6.029,CST-1368DR,4686,5070,11529,01.214,551
2022-06-25T14:39:23,42.805,6.029,CST-1368DR,4686,5076,11543,01.209,551
2022-06-25T14:42:24,42.805,6.029,CST-1368DR,4686,5084,11562,01.202,551
2022-06-25T14:45:26,42.805,6.029,CST-1368DR,4686,5077,11544,01.209,551
2022-06-25T14:48:28,42.805,6.029,CST-1368DR,4686,5071,11530,01.213,551
2022-06-25T14:51:29,42.805,6.029,CST-1368DR,4686,5068,11523,01.216,551
2022-06-25T14:54:31,42.805,6.029,CST-1368DR,4686,5083,11559,01.203,551
2022-06-25T14:57:32,42.805,6.029,CST-1368DR,4686,5084,11560,01.203,551
2022-06-25T15:00:34,42.805,6.029,CST-1368DR,4686,5076,11542,01.209,551
2022-06-25T15:03:35,42.805,6.029,CST-1368DR,4686,5079,11548,01.207,551
2022-06-25T15:06:37,42.805,6.029,CST-1368DR,4686,5072,11533,01.212,551
2022-06-25T15:09:39,42.805,6.029,CST-1368DR,4686,5085,11564,01.202,551
2022-06-25T15:12:40,42.805,6.029,CST-1368DR,4686,5083,11558,01.204,551
2022-06-25T15:15:42,42.805,6.029,CST-1368DR,4686,5076,11542,01.209,551
2022-06-25T15:18:43,42.805,6.029,CST-1368DR,4686,5075,11541,01.210,551
2022-06-25T15:21:45,42.805,6.029,CST-1368DR,4686,5077,11544,01.209,551
2022-06-25T15:24:47,42.805,6.029,CST-1368DR,4686,5074,11539,01.210,551
2022-06-25T15:27:48,42.805,6.029,CST-1368DR,4686,5078,11547,01.207,551
2022-06-25T15:30:50,42.805,6.029,CST-1368DR,4686,5076,11542,01.209,551
2022-06-25T15:33:51,42.805,6.029,CST-1368DR,4686,5090,11574,01.198,551
2022-06-25T15:36:53,42.805,6.029,CST-1368DR,4686,5078,11548,01.207,551
2022-06-25T15:39:54,42.805,6.029,CST-1368DR,4686,5079,11548,01.207,551
2022-06-25T15:42:56,42.805,6.029,CST-1368DR,4686,5079,11550,01.206,551
2022-06-25T15:45:58,42.805,6.029,CST-1368DR,4686,5082,11556,01.204,551
2022-06-25T15:48:59,42.805,6.029,CST-1368DR,4686,5074,11538,01.211,551
2022-06-25T15:52:01,42.805,6.029,CST-1368DR,4686,5084,11561,01.203,551
2022-06-25T15:55:02,42.805,6.029,CST-1368DR,4686,5082,11557,01.204,551
2022-06-25T15:58:04,42.805,6.029,CST-1368DR,4686,5084,11560,01.203,551
2022-06-25T16:01:05,42.805,6.029,CST-1368DR,4686,5077,11545,01.208,551
2022-06-25T16:04:07,42.805,6.029,CST-1368DR,4686,5095,11585,01.194,551
2022-06-25T16:07:09,42.805,6.029,CST-1368DR,4686,5098,11592,01.192,551
2022-06-25T16:10:10,42.805,6.029,CST-1368DR,4686,5088,11570,01.200,551
2022-06-25T16:13:12,42.805,6.029,CST-1368DR,4686,5097,11591,01.192,551
2022-06-25T16:16:13,42.805,6.029,CST-1368DR,4686,5095,11585,01.194,551
2022-06-25T16:19:15,42.805,6.029,CST-1368DR,4686,5088,11571,01.199,551
2022-06-25T16:22:17,42.805,6.029,CST-1368DR,4686,5076,11543,01.209,551
2022-06-25T16:25:18,42.805,6.029,CST-1368DR,4686,5101,11600,01.189,551
2022-06-25T16:28:20,42.805,6.029,CST-1368DR,4686,5076,11542,01.209,551
2022-06-25T16:31:21,42.805,6.029,CST-1368DR,4686,5083,11559,01.203,551
2022-06-25T16:34:23,42.805,6.029,CST-1368DR,4686,5083,11558,01.204,551
2022-06-25T16:37:24,42.805,6.029,CST-1368DR,4686,5089,11571,01.199,551